Total_Precipitation_Accumulation
1.04 1.07 1.11 1.12 1.12 1.10 1.06 0.98 1.01 1.03 1.02 0.97 0.98 1.02 1.06 1.09 1.12 1.16 1.17 1.25 1.28 1.31 1.35 1.46 1.57 1.70 1.71 1.60 1.64 1.72 1.85 1.95 1.75 1.70 1.67 1.47 1.37 1.24 1.16 1.10 0.96 0.89 0.77
0.94 1.01 1.11 1.11 1.06 1.00 0.93 0.88 0.92 0.95 0.96 0.92 0.95 0.98 0.99 1.02 1.10 1.17 1.21 1.25 1.25 1.24 1.28 1.40 1.46 1.54 1.63 1.56 1.49 1.48 1.64 1.81 1.80 1.79 1.89 1.81 1.59 1.43 1.35 1.25 0.99 0.85 0.82
0.93 0.99 1.02 1.04 1.02 0.93 0.83 0.82 0.82 0.83 0.87 0.85 0.83 0.83 0.85 0.93 1.03 1.08 1.13 1.18 1.25 1.31 1.28 1.29 1.28 1.37 1.54 1.65 1.62 1.57 1.61 1.72 1.85 1.85 1.93 1.97 1.74 1.54 1.54 1.38 1.19 1.18 0.90
0.84 0.88 0.87 0.84 0.85 0.87 0.84 0.79 0.75 0.77 0.81 0.83 0.81 0.83 0.86 0.89 0.94 0.97 0.98 0.99 1.01 1.06 1.09 1.08 1.07 1.10 1.27 1.56 1.63 1.72 1.74 1.72 1.83 1.88 1.96 2.04 2.06 1.85 1.78 1.63 1.49 1.39 1.18
0.79 0.81 0.80 0.82 0.81 0.79 0.76 0.71 0.70 0.69 0.66 0.75 0.80 0.82 0.85 0.84 0.77 0.80 0.83 0.78 0.79 0.77 0.78 0.80 0.81 0.86 0.88 1.02 1.19 1.44 1.62 1.70 1.74 1.86 1.94 2.02 2.06 2.12 1.87 1.72 1.63 1.58 1.48
0.62 0.64 0.75 0.82 0.79 0.76 0.69 0.64 0.63 0.65 0.70 0.78 0.81 0.78 0.74 0.64 0.68 0.71 0.72 0.72 0.70 0.68 0.67 0.67 0.66 0.66 0.68 0.74 0.78 0.96 1.20 1.44 1.68 1.87 1.94 2.00 2.05 2.10 2.03 1.88 1.77 1.65 1.63
0.56 0.58 0.60 0.68 0.74 0.72 0.64 0.61 0.59 0.63 0.70 0.75 0.78 0.82 0.78 0.79 0.75 0.72 0.77 0.73 0.71 0.68 0.68 0.68 0.55 0.49 0.55 0.59 0.64 0.67 0.81 0.95 1.09 1.46 1.73 1.79 1.86 1.94 2.09 2.04 1.98 1.94 1.87
0.60 0.61 0.59 0.60 0.67 0.71 0.68 0.65 0.67 0.70 0.71 0.76 0.80 0.84 0.89 0.83 0.79 0.74 0.74 0.67 0.70 0.74 0.71 0.70 0.65 0.60 0.59 0.64 0.71 0.70 0.66 0.69 0.76 0.87 1.02 1.20 1.41 1.73 1.97 2.07 2.17 2.21 2.22
0.61 0.63 0.61 0.61 0.66 0.71 0.72 0.76 0.81 0.85 0.78 0.76 0.83 0.93 1.00 0.97 0.87 0.76 0.74 0.69 0.73 0.76 0.71 0.69 0.70 0.64 0.60 0.54 0.62 0.70 0.69 0.67 0.65 0.70 0.76 0.93 1.09 1.29 1.54 1.72 1.84 1.99 2.25
0.64 0.63 0.62 0.67 0.73 0.77 0.85 0.98 1.05 1.07 1.00 0.96 0.94 1.00 1.04 1.05 0.94 0.78 0.74 0.73 0.80 0.87 0.91 0.87 0.81 0.72 0.64 0.59 0.59 0.67 0.70 0.68 0.72 0.75 0.73 0.73 0.77 0.87 1.05 1.21 1.35 1.56 1.81
0.79 0.81 0.80 0.84 0.94 1.02 1.16 1.27 1.33 1.29 1.32 1.31 1.24 1.22 1.24 1.18 1.09 0.89 0.84 0.84 0.96 1.10 1.09 1.03 0.95 0.84 0.70 0.63 0.62 0.66 0.67 0.71 0.80 0.87 0.89 0.86 0.82 0.78 0.83 0.96 1.15 1.25 1.36
1.02 1.03 1.05 1.13 1.05 1.08 1.31 1.39 1.49 1.57 1.54 1.47 1.47 1.42 1.39 1.33 1.15 1.00 0.93 0.94 1.00 1.14 1.20 1.12 1.01 0.88 0.72 0.63 0.60 0.58 0.58 0.59 0.64 0.74 0.81 0.85 0.85 0.80 0.80 0.93 1.14 1.30 1.29
1.20 1.25 1.30 1.35 1.39 1.42 1.54 1.60 1.62 1.63 1.60 1.54 1.56 1.56 1.51 1.47 1.34 1.08 1.00 0.99 0.97 1.02 1.09 1.07 0.98 0.84 0.74 0.65 0.63 0.59 0.53 0.54 0.62 0.68 0.72 0.81 0.85 0.84 0.87 0.98 1.14 1.32 1.33
1.36 1.39 1.51 1.65 1.68 1.70 1.79 1.79 1.76 1.73 1.70 1.71 1.71 1.67 1.64 1.63 1.57 1.40 1.20 1.09 1.01 0.95 0.96 1.01 0.98 0.87 0.76 0.73 0.71 0.64 0.59 0.64 0.72 0.73 0.76 0.84 0.93 0.97 0.99 0.98 1.08 1.18 1.27
1.50 1.55 1.69 1.83 1.92 1.96 1.84 1.82 1.82 1.85 1.79 1.75 1.75 1.73 1.76 1.73 1.63 1.49 1.39 1.32 1.25 1.19 1.13 1.14 1.15 1.05 0.95 0.92 0.92 0.90 0.89 0.84 0.79 0.80 0.86 0.92 0.98 1.02 1.01 1.04 1.09 1.13 1.10
1.58 1.63 1.74 1.82 1.92 1.93 1.91 1.80 1.67 1.59 1.53 1.45 1.48 1.51 1.52 1.52 1.46 1.30 1.20 1.17 1.19 1.25 1.21 1.20 1.28 1.29 1.22 1.13 1.09 1.08 1.07 1.01 0.97 0.98 1.00 0.99 0.99 1.00 0.99 1.06 1.15 1.15 1.12
1.65 1.71 1.73 1.73 1.80 1.88 1.89 1.85 1.74 1.63 1.51 1.38 1.32 1.26 1.22 1.21 1.21 1.19 1.19 1.19 1.17 1.17 1.15 1.23 1.35 1.41 1.43 1.40 1.32 1.22 1.17 1.11 1.05 1.05 1.04 1.05 1.05 1.09 1.13 1.16 1.21 1.23 1.20
1.61 1.68 1.63 1.62 1.68 1.80 1.85 1.89 1.90 1.82 1.73 1.60 1.46 1.34 1.20 1.10 1.09 1.13 1.18 1.18 1.16 1.13 1.16 1.28 1.39 1.46 1.54 1.54 1.42 1.35 1.26 1.17 1.11 1.11 1.14 1.17 1.17 1.19 1.20 1.18 1.19 1.20 1.21
1.55 1.61 1.66 1.73 1.78 1.83 1.89 1.95 1.97 1.88 1.82 1.70 1.50 1.34 1.21 1.10 1.07 1.10 1.07 1.04 1.10 1.18 1.23 1.37 1.43 1.44 1.39 1.35 1.32 1.30 1.25 1.20 1.17 1.16 1.15 1.15 1.14 1.16 1.19 1.22 1.22 1.25 1.21
1.48 1.57 1.69 1.68 1.69 1.74 1.84 1.93 1.96 1.94 1.92 1.88 1.73 1.46 1.24 1.11 1.08 1.11 1.06 1.06 1.11 1.14 1.18 1.27 1.36 1.41 1.38 1.33 1.29 1.22 1.19 1.17 1.15 1.14 1.13 1.12 1.14 1.15 1.12 1.16 1.20 1.17 1.15
1.49 1.47 1.55 1.55 1.57 1.60 1.68 1.75 1.80 1.80 1.73 1.70 1.65 1.50 1.35 1.21 1.19 1.15 1.11 1.11 1.09 1.06 1.13 1.24 1.31 1.30 1.26 1.22 1.23 1.18 1.14 1.15 1.13 1.11 1.14 1.16 1.17 1.15 1.08 1.06 1.05 1.04 1.02
1.56 1.51 1.40 1.40 1.42 1.49 1.54 1.56 1.59 1.55 1.51 1.49 1.46 1.37 1.32 1.24 1.25 1.21 1.13 1.08 1.02 0.97 0.98 1.05 1.13 1.16 1.12 1.08 1.10 1.13 1.11 1.08 1.09 1.06 1.05 1.05 1.08 1.06 1.01 1.01 1.02 1.04 1.07
1.48 1.44 1.33 1.25 1.21 1.29 1.32 1.35 1.37 1.36 1.36 1.35 1.33 1.23 1.17 1.18 1.14 1.06 0.99 0.93 0.90 0.89 0.90 0.94 0.98 0.99 0.96 0.93 0.95 0.99 0.99 0.95 0.95 0.98 1.01 1.03 1.03 0.97 0.96 0.98 0.96 1.00 1.03
1.38 1.36 1.31 1.21 1.09 1.09 1.17 1.28 1.30 1.28 1.28 1.20 1.09 1.01 0.99 1.00 0.94 0.84 0.79 0.78 0.78 0.75 0.75 0.78 0.76 0.74 0.76 0.79 0.82 0.82 0.81 0.78 0.77 0.82 0.84 0.89 0.92 0.89 0.89 0.90 0.87 0.92 1.04
1.14 1.17 1.19 1.14 1.03 0.98 1.07 1.17 1.16 1.09 1.04 0.97 0.88 0.85 0.82 0.79 0.78 0.76 0.73 0.71 0.70 0.69 0.63 0.63 0.65 0.64 0.65 0.65 0.65 0.64 0.61 0.58 0.57 0.59 0.64 0.70 0.79 0.84 0.86 0.87 0.91 1.00 1.09
0.95 0.95 0.96 0.95 0.90 0.85 0.91 1.00 1.01 0.94 0.90 0.83 0.73 0.71 0.73 0.74 0.75 0.75 0.71 0.66 0.64 0.61 0.57 0.57 0.61 0.60 0.57 0.56 0.54 0.48 0.45 0.42 0.44 0.48 0.50 0.57 0.69 0.79 0.82 0.86 0.87 0.92 0.98